View from above orbital plane
|
View from above satellite
|
Ground track
|
The orbit data is extracted from the following two-line orbital elements,
1 23753U 95072C 21104.55049902 -.00000039 00000-0 29337-5 0 9997
2 23753 98.9559 131.8354 0003947 160.0484 200.0850 14.26598378316466
Epoch (UTC): | 14 April 2021 13:12:43 |
Eccentricity: | 0.0003947 |
inclination: | 98.9559° |
perigee height: | 800 km |
apogee height: | 806 km |
right ascension of ascending node: | 131.8354° |
argument of perigee: | 160.0484° |
revolutions per day: | 14.26598378 |
mean anomaly at epoch: | 200.0850° |
orbit number at epoch: | 31646 |
The dashed part of the orbit path shows where the satellite is in the earth's shadow,
|
|